Weather History for Beatrice, NE

Change the Weather History Date:

Tuesday, January 11, 2000

  Actual Average Record
Temperature  
Mean Temperature 32 °F -  
Max Temperature 42 °F 28 °F 59 °F (2006)
Min Temperature 21 °F 9 °F -12 °F (1974)
Degree Days  
Heating Degree Days 34    
Moisture  
Dew Point 11 °F    
Average Humidity 44    
Maximum Humidity 64    
Minimum Humidity 25    
Precipitation  
Precipitation 0.00 in - - ()
Sea Level Pressure  
Sea Level Pressure 29.98 in    
Wind  
Wind Speed 9 mph (South)    
Max Wind Speed 15 mph    
Max Gust Speed 22 mph    
Visibility 10 miles    
Events      
Averages and records for this station are not official NWS values.
T = Trace of Precipitation, MM = Missing Value Source: NWS Daily Summary

Daily Weather History Graph

Daily Weather History Graph

Search for Another Location

Airport:

Trip Planner

Search our weather history database for the weather conditions in past years. The results will help you decide how hot, cold, wet, or windy it might be!

Date:

Astronomy

Jan. 11, 2000 Rise Set
Actual Time 7:49 AM CST 5:20 PM CST
Civil Twilight 7:19 AM CST 5:50 PM CST
Nautical Twilight 6:45 AM CST 6:24 PM CST
Astronomical Twilight 6:12 AM CST 6:57 PM CST
Moon 10:49 AM CST (1/11) 10:16 PM CST (1/11)
Length of Visible Light 10h 31m
Length of Day
9h 31m
Waxing Crescent, 22% of the Moon is Illuminated
Jan 11
Waxing Crescent
Jan 14
First Quarter
Jan 20
Full
Jan 28
Last Quarter
Feb 5
New

Hourly Weather History & Observations

Time (CST) Temp. Windchill Dew Point Humidity Pressure Visibility Wind Dir Wind Speed Gust Speed Precip Events Conditions
12:10 AM 30.2 °F 19.3 °F 8.6 °F 40% 29.91 in 10.0 mi NW 15.0 mph - N/A   Clear
12:31 AM 30.2 °F 19.3 °F 10.4 °F 44% 29.92 in 10.0 mi NW 15.0 mph - N/A   Clear
12:48 AM 28.4 °F 18.5 °F 8.6 °F 43% 29.92 in 10.0 mi NW 11.5 mph - N/A   Clear
1:10 AM 26.6 °F 19.1 °F 8.6 °F 47% 29.93 in 10.0 mi West 6.9 mph - N/A   Clear
1:30 AM 26.6 °F 18.2 °F 8.6 °F 47% 29.94 in 10.0 mi West 8.1 mph - N/A   Clear
1:52 AM 24.8 °F 16.9 °F 8.6 °F 50% 29.94 in 10.0 mi West 6.9 mph - N/A   Clear
3:30 AM 26.6 °F 18.2 °F 10.4 °F 51% 29.97 in 10.0 mi West 8.1 mph - N/A   Scattered Clouds
3:48 AM 26.6 °F 21.2 °F 10.4 °F 51% 29.98 in 10.0 mi West 4.6 mph - N/A   Scattered Clouds
4:50 AM 26.6 °F 19.1 °F 10.4 °F 51% 30.00 in 10.0 mi WSW 6.9 mph - N/A   Mostly Cloudy
5:09 AM 24.8 °F 16.9 °F 10.4 °F 54% 29.99 in 10.0 mi SW 6.9 mph - N/A   Scattered Clouds
5:28 AM 23.0 °F 13.9 °F 8.6 °F 54% 30.00 in 10.0 mi SW 8.1 mph - N/A   Clear
5:48 AM 23.0 °F 14.7 °F 10.4 °F 59% 30.01 in 10.0 mi WSW 6.9 mph - N/A   Scattered Clouds
6:11 AM 24.8 °F 17.9 °F 12.2 °F 59% 30.02 in 10.0 mi West 5.8 mph - N/A   Mostly Cloudy
6:28 AM 24.8 °F 17.9 °F 12.2 °F 59% 30.00 in 10.0 mi West 5.8 mph - N/A   Mostly Cloudy
6:50 AM 26.6 °F 19.1 °F 12.2 °F 55% 30.02 in 10.0 mi West 6.9 mph - N/A   Mostly Cloudy
7:11 AM 26.6 °F 21.2 °F 12.2 °F 55% 30.03 in 10.0 mi West 4.6 mph - N/A   Mostly Cloudy
7:32 AM 26.6 °F 20.0 °F 12.2 °F 55% 30.02 in 10.0 mi WNW 5.8 mph - N/A   Scattered Clouds
7:49 AM 21.2 °F 13.6 °F 10.4 °F 63% 30.02 in 10.0 mi NNW 5.8 mph - N/A   Clear
8:08 AM 21.2 °F 14.9 °F 10.4 °F 63% 30.03 in 10.0 mi NNW 4.6 mph - N/A   Clear
8:29 AM 21.2 °F - 10.4 °F 63% 30.02 in 10.0 mi Calm Calm - N/A   Scattered Clouds
8:51 AM 26.6 °F 22.6 °F 15.8 °F 64% 30.05 in 10.0 mi WSW 3.5 mph - N/A   Scattered Clouds
9:12 AM 28.4 °F - 14.0 °F 55% 30.05 in 10.0 mi Calm Calm - N/A   Scattered Clouds
9:33 AM 28.4 °F - 14.0 °F 55% 30.06 in 10.0 mi Calm Calm - N/A   Scattered Clouds
9:50 AM 28.4 °F 24.6 °F 14.0 °F 55% 30.06 in 10.0 mi SSW 3.5 mph - N/A   Scattered Clouds
10:10 AM 30.2 °F 25.4 °F 14.0 °F 51% 30.06 in 10.0 mi South 4.6 mph - N/A   Scattered Clouds
10:32 AM 30.2 °F - 14.0 °F 51% 30.08 in 10.0 mi Calm Calm - N/A   Mostly Cloudy
10:51 AM 30.2 °F - 12.2 °F 47% 30.08 in 10.0 mi Calm Calm - N/A   Mostly Cloudy
11:13 AM 32.0 °F 26.4 °F 14.0 °F 48% 30.07 in 10.0 mi SSE 5.8 mph - N/A   Scattered Clouds
11:30 AM 33.8 °F 28.6 °F 14.0 °F 44% 30.06 in 10.0 mi ESE 5.8 mph - N/A   Scattered Clouds
11:53 AM 35.6 °F 32.8 °F 10.4 °F 35% 30.06 in 10.0 mi SSE 3.5 mph - N/A   Scattered Clouds
12:11 PM 35.6 °F 32.8 °F 12.2 °F 38% 30.05 in 10.0 mi South 3.5 mph - N/A   Clear
12:30 PM 37.4 °F 32.1 °F 12.2 °F 36% 30.04 in 10.0 mi SSE 6.9 mph - N/A   Clear
12:50 PM 37.4 °F 32.1 °F 10.4 °F 33% 30.03 in 10.0 mi SSE 6.9 mph - N/A   Clear
1:30 PM 39.2 °F 33.6 °F 10.4 °F 31% 30.01 in 10.0 mi SE 8.1 mph - N/A   Scattered Clouds
1:51 PM 41.0 °F 34.3 °F 10.4 °F 29% 30.00 in 10.0 mi SSE 11.5 mph - N/A   Scattered Clouds
2:33 PM 41.0 °F 33.5 °F 10.4 °F 29% 29.98 in 10.0 mi SSE 13.8 mph - N/A   Scattered Clouds
2:50 PM 41.0 °F 34.3 °F 8.6 °F 26% 29.97 in 10.0 mi SSE 11.5 mph - N/A   Scattered Clouds
3:31 PM 42.8 °F 35.8 °F 8.6 °F 25% 29.96 in 10.0 mi SSE 13.8 mph 21.9 mph N/A   Clear
3:50 PM 42.8 °F 36.2 °F 10.4 °F 27% 29.96 in 10.0 mi South 12.7 mph 17.3 mph N/A   Clear
4:11 PM 42.8 °F 36.2 °F 8.6 °F 25% 29.95 in 10.0 mi SSE 12.7 mph - N/A   Clear
4:30 PM 42.8 °F 36.2 °F 8.6 °F 25% 29.95 in 10.0 mi SSE 12.7 mph - N/A   Clear
4:51 PM 41.0 °F 33.9 °F 8.6 °F 26% 29.95 in 10.0 mi SSE 12.7 mph 18.4 mph N/A   Clear
5:12 PM 39.2 °F 32.0 °F 8.6 °F 28% 29.94 in 10.0 mi SSE 11.5 mph - N/A   Clear
5:34 PM 39.2 °F 32.5 °F 8.6 °F 28% 29.93 in 10.0 mi SE 10.4 mph - N/A   Clear
5:50 PM 37.4 °F 29.8 °F 8.6 °F 30% 29.93 in 10.0 mi SE 11.5 mph - N/A   Clear
6:30 PM 35.6 °F 28.6 °F 8.6 °F 33% 29.93 in 10.0 mi SE 9.2 mph - N/A   Clear
6:51 PM 35.6 °F 29.9 °F 8.6 °F 33% 29.93 in 10.0 mi ESE 6.9 mph - N/A   Clear
7:10 PM 33.8 °F 27.7 °F 6.8 °F 32% 29.93 in 10.0 mi ESE 6.9 mph - N/A   Clear
7:50 PM 30.2 °F 23.4 °F 8.6 °F 40% 29.94 in 10.0 mi ESE 6.9 mph - N/A   Clear
8:51 PM 30.2 °F 24.3 °F 8.6 °F 40% 29.93 in 10.0 mi ESE 5.8 mph - N/A   Clear
9:12 PM 30.2 °F 23.4 °F 10.4 °F 44% 29.92 in 10.0 mi East 6.9 mph - N/A   Clear
9:31 PM 28.4 °F 20.4 °F 10.4 °F 47% 29.92 in 10.0 mi ESE 8.1 mph - N/A   Clear
9:50 PM 28.4 °F 20.4 °F 10.4 °F 47% 29.91 in 10.0 mi ESE 8.1 mph - N/A   Clear
10:11 PM 28.4 °F 19.7 °F 10.4 °F 47% 29.91 in 10.0 mi ESE 9.2 mph - N/A   Clear
10:31 PM 30.2 °F 21.9 °F 12.2 °F 47% 29.91 in 10.0 mi ESE 9.2 mph - N/A   Clear
10:50 PM 32.0 °F 23.0 °F 12.2 °F 44% 29.91 in 10.0 mi ESE 11.5 mph - N/A   Clear
11:11 PM 32.0 °F 22.1 °F 10.4 °F 41% 29.89 in 10.0 mi ESE 13.8 mph 17.3 mph N/A   Clear
11:32 PM 32.0 °F 22.1 °F 10.4 °F 41% 29.88 in 10.0 mi SE 13.8 mph - N/A   Clear
11:50 PM 30.2 °F 20.2 °F 10.4 °F 44% 29.89 in 10.0 mi SE 12.7 mph 17.3 mph N/A   Clear